Погода в Сан-Хуан-Баутисте

Парагвай     26°40′13″S   57°08′05″W
темп.,
°C
ветер,
м/с
пор.,
м/с
влажн.,
%
обл.,
%
осадки,
мм/ч
давл.,
гПа
погр.,
м
4 августа, ср
ср423:00+10юв287468 0.0 1026146
02:00+9вюв228399 0.0 102616
05:00+9юв228333 0.0 102527
08:00+13вюв246546 0.0 1026142
11:00+21в233894 0.0 1026687
14:00+24в2332100 0.0 10231284
17:00+19ююв2248100 0.0 102324
20:00+17юв2758100 0.0 1024148
5 августа, чт
чт523:00+15вюв2465100 0.0 102492
02:00+14всв2268100 0.0 102330
05:00+13всв2465100 0.0 102268
08:00+16всв2656100 0.0 1024164
11:00+22св2440100 0.0 1024571
14:00+23всв1338100 0.0 1022935
17:00+19в2255100 0.0 102121
20:00+18в2759100 0.0 1022150
6 августа, пт
пт623:00+16в266177 0.0 1021107
02:00+16св2660100 0.0 1021117
05:00+15всв376846 0.0 1020126
08:00+18всв3962100 0.0 1021242
11:00+25ссв3643100 0.0 1021834
14:00+27св3537100 0.0 10171057
17:00+24св2348100 0.0 101750
20:00+20всв255693 0.0 101795
7 августа, сб
сб723:00+19св313581 0.0 1016271
02:00+18св313640 0.0 1015277
05:00+18св414630 0.0 1015360
08:00+21св516540 0.0 1016552
11:00+30ссв610310 0.0 10151118
14:00+33ссв57240 0.0 10111958
17:00+27св37375 0.0 1011115
20:00+23всв411463 0.0 1013217
8 августа, вс
вс823:00+23всв415495 0.0 1013422
02:00+22всв414510 0.0 1013407
05:00+21св516480 0.0 1013470
08:00+23св516442 0.0 1015521
11:00+31ссв592775 0.0 1015946
14:00+35ссв572194 0.0 10111695
17:00+30всв263199 0.0 1011104
20:00+27всв514333 0.0 1012457